Time,TemperatureF,DewpointF,PressureIn,WindDirection,WindDirectionDegrees,WindSpeedMPH,WindSpeedGustMPH,Humidity,HourlyPrecipIn,Conditions,Clouds,dailyrainin,SoftwareType,DateUTC
2017-12-14 00:07:00,49.3,42.0,30.00,West,273,2.0,6.0,75,0.00,,,0.00,weatherlink.com 1.10,2017-12-14 06:07:00,
2017-12-14 00:22:00,49.5,42.0,29.99,NNW,331,3.0,5.0,74,0.00,,,0.00,weatherlink.com 1.10,2017-12-14 06:22:00,
2017-12-14 00:37:00,49.9,42.0,30.00,WNW,288,2.0,6.0,74,0.00,,,0.00,weatherlink.com 1.10,2017-12-14 06:37:00,
2017-12-14 01:07:00,50.6,43.0,30.00,West,264,2.0,7.0,74,0.00,,,0.00,weatherlink.com 1.10,2017-12-14 07:07:00,
2017-12-14 01:22:00,51.0,43.0,30.00,West,272,1.0,7.0,74,0.00,,,0.00,weatherlink.com 1.10,2017-12-14 07:22:00,
2017-12-14 01:38:00,50.8,43.0,30.00,WSW,255,1.0,6.0,74,0.00,,,0.00,weatherlink.com 1.10,2017-12-14 07:38:00,
2017-12-14 02:08:00,50.1,42.0,30.00,WNW,300,1.0,2.0,75,0.00,,,0.00,weatherlink.com 1.10,2017-12-14 08:08:00,
2017-12-14 02:37:00,49.1,42.0,29.99,WNW,300,1.0,2.0,77,0.00,,,0.00,weatherlink.com 1.10,2017-12-14 08:37:00,
2017-12-14 02:52:00,48.8,42.0,29.99,WNW,300,0.0,0.0,78,0.00,,,0.00,weatherlink.com 1.10,2017-12-14 08:52:00,
2017-12-14 03:07:00,48.3,42.0,30.00,WNW,300,0.0,0.0,79,0.00,,,0.00,weatherlink.com 1.10,2017-12-14 09:07:00,
2017-12-14 03:22:00,48.4,43.0,30.00,WNW,300,0.0,0.0,81,0.00,,,0.00,weatherlink.com 1.10,2017-12-14 09:22:00,
2017-12-14 03:37:00,48.4,43.0,29.99,WNW,300,1.0,1.0,81,0.00,,,0.00,weatherlink.com 1.10,2017-12-14 09:37:00,
2017-12-14 03:53:00,48.5,43.0,29.98,SW,225,1.0,2.0,81,0.00,,,0.00,weatherlink.com 1.10,2017-12-14 09:53:00,
2017-12-14 04:07:00,48.7,43.0,29.98,SW,232,0.0,2.0,81,0.00,,,0.00,weatherlink.com 1.10,2017-12-14 10:07:00,
2017-12-14 04:23:00,48.1,43.0,29.99,SW,232,2.0,2.0,81,0.00,,,0.00,weatherlink.com 1.10,2017-12-14 10:23:00,
2017-12-14 04:38:00,48.3,43.0,29.98,SW,232,0.0,4.0,82,0.00,,,0.00,weatherlink.com 1.10,2017-12-14 10:38:00,
2017-12-14 04:52:00,47.6,42.0,29.99,NNW,336,0.0,1.0,82,0.00,,,0.00,weatherlink.com 1.10,2017-12-14 10:52:00,
2017-12-14 05:08:00,47.5,43.0,29.99,NNW,336,0.0,2.0,83,0.00,,,0.00,weatherlink.com 1.10,2017-12-14 11:08:00,
2017-12-14 05:22:00,47.5,43.0,29.99,NNW,333,1.0,3.0,83,0.00,,,0.00,weatherlink.com 1.10,2017-12-14 11:22:00,
2017-12-14 05:38:00,47.0,42.0,30.00,NNW,333,0.0,0.0,82,0.00,,,0.00,weatherlink.com 1.10,2017-12-14 11:38:00,
2017-12-14 05:53:00,46.2,41.0,30.01,NNW,333,0.0,2.0,83,0.00,,,0.00,weatherlink.com 1.10,2017-12-14 11:53:00,
2017-12-14 06:08:00,45.8,41.0,30.01,NNW,333,0.0,1.0,83,0.00,,,0.00,weatherlink.com 1.10,2017-12-14 12:08:00,
2017-12-14 06:23:00,45.5,41.0,30.01,NNW,333,0.0,0.0,83,0.00,,,0.00,weatherlink.com 1.10,2017-12-14 12:23:00,
2017-12-14 06:38:00,45.1,41.0,30.02,NNW,333,0.0,0.0,84,0.00,,,0.00,weatherlink.com 1.10,2017-12-14 12:38:00,
2017-12-14 06:53:00,46.0,41.0,30.02,NNW,336,0.0,1.0,84,0.00,,,0.00,weatherlink.com 1.10,2017-12-14 12:53:00,
2017-12-14 07:08:00,46.6,42.0,30.02,North,355,0.0,2.0,84,0.00,,,0.00,weatherlink.com 1.10,2017-12-14 13:08:00,
2017-12-14 07:23:00,46.8,42.0,30.03,North,355,0.0,0.0,84,0.00,,,0.00,weatherlink.com 1.10,2017-12-14 13:23:00,
2017-12-14 07:38:00,46.9,42.0,30.03,North,355,0.0,2.0,84,0.00,,,0.00,weatherlink.com 1.10,2017-12-14 13:38:00,
2017-12-14 07:53:00,47.6,43.0,30.03,North,355,1.0,2.0,83,0.00,,,0.00,weatherlink.com 1.10,2017-12-14 13:53:00,
2017-12-14 08:08:00,48.4,44.0,30.04,North,355,0.0,1.0,83,0.00,,,0.00,weatherlink.com 1.10,2017-12-14 14:08:00,
2017-12-14 08:23:00,49.8,45.0,30.04,West,271,1.0,4.0,83,0.00,,,0.00,weatherlink.com 1.10,2017-12-14 14:23:00,
2017-12-14 08:38:00,49.5,44.0,30.04,West,279,1.0,2.0,82,0.00,,,0.00,weatherlink.com 1.10,2017-12-14 14:38:00,
2017-12-14 08:53:00,50.4,45.0,30.04,SW,226,1.0,2.0,83,0.00,,,0.00,weatherlink.com 1.10,2017-12-14 14:53:00,
2017-12-14 09:08:00,51.8,47.0,30.05,West,269,3.0,4.0,82,0.00,,,0.00,weatherlink.com 1.10,2017-12-14 15:08:00,
2017-12-14 09:23:00,54.1,47.0,30.04,West,265,4.0,9.0,78,0.00,,,0.00,weatherlink.com 1.10,2017-12-14 15:23:00,
2017-12-14 09:38:00,54.7,47.0,30.05,West,261,4.0,9.0,76,0.00,,,0.00,weatherlink.com 1.10,2017-12-14 15:38:00,
2017-12-14 09:53:00,56.0,47.0,30.05,SW,225,4.0,8.0,73,0.00,,,0.00,weatherlink.com 1.10,2017-12-14 15:53:00,
2017-12-14 10:08:00,56.7,46.0,30.04,West,261,4.0,9.0,68,0.00,,,0.00,weatherlink.com 1.10,2017-12-14 16:08:00,
2017-12-14 10:23:00,57.5,46.0,30.04,NW,306,4.0,9.0,66,0.00,,,0.00,weatherlink.com 1.10,2017-12-14 16:23:00,
2017-12-14 10:39:00,58.9,44.0,30.03,WNW,292,3.0,6.0,59,0.00,,,0.00,weatherlink.com 1.10,2017-12-14 16:39:00,
2017-12-14 10:53:00,59.5,42.0,30.02,WSW,252,2.0,8.0,52,0.00,,,0.00,weatherlink.com 1.10,2017-12-14 16:53:00,
2017-12-14 11:09:00,57.7,48.0,30.03,SSW,198,8.0,9.0,71,0.00,,,0.00,weatherlink.com 1.10,2017-12-14 17:09:00,
2017-12-14 11:23:00,56.8,48.0,30.02,SW,232,4.0,9.0,73,0.00,,,0.00,weatherlink.com 1.10,2017-12-14 17:23:00,
2017-12-14 11:38:00,57.2,47.0,30.01,South,182,4.0,8.0,70,0.00,,,0.00,weatherlink.com 1.10,2017-12-14 17:38:00,
2017-12-14 11:53:00,57.7,48.0,30.00,SSE,166,9.0,9.0,69,0.00,,,0.00,weatherlink.com 1.10,2017-12-14 17:53:00,
2017-12-14 12:08:00,57.9,49.0,30.00,SSW,212,8.0,9.0,71,0.00,,,0.00,weatherlink.com 1.10,2017-12-14 18:08:00,
2017-12-14 12:24:00,58.0,50.0,30.00,SSW,201,7.0,9.0,74,0.00,,,0.00,weatherlink.com 1.10,2017-12-14 18:24:00,
2017-12-14 12:38:00,58.3,50.0,29.99,SSW,202,9.0,10.0,74,0.00,,,0.00,weatherlink.com 1.10,2017-12-14 18:38:00,
2017-12-14 12:53:00,58.6,51.0,29.98,SSW,194,7.0,10.0,75,0.00,,,0.00,weatherlink.com 1.10,2017-12-14 18:53:00,
2017-12-14 13:09:00,58.6,50.0,29.98,SSW,195,6.0,8.0,74,0.00,,,0.00,weatherlink.com 1.10,2017-12-14 19:09:00,
2017-12-14 13:23:00,58.8,50.0,29.98,SSW,196,10.0,11.0,73,0.00,,,0.00,weatherlink.com 1.10,2017-12-14 19:23:00,
2017-12-14 13:39:00,58.8,50.0,29.98,SSW,207,8.0,11.0,72,0.00,,,0.00,weatherlink.com 1.10,2017-12-14 19:39:00,
2017-12-14 13:54:00,58.9,50.0,29.98,SSW,209,8.0,10.0,72,0.00,,,0.00,weatherlink.com 1.10,2017-12-14 19:54:00,
2017-12-14 14:09:00,59.1,50.0,29.99,SW,219,6.0,11.0,73,0.00,,,0.00,weatherlink.com 1.10,2017-12-14 20:09:00,
2017-12-14 14:24:00,59.1,50.0,29.98,SSW,212,9.0,9.0,73,0.00,,,0.00,weatherlink.com 1.10,2017-12-14 20:24:00,
2017-12-14 14:39:00,59.0,50.0,29.98,SSW,213,7.0,8.0,72,0.00,,,0.00,weatherlink.com 1.10,2017-12-14 20:39:00,
2017-12-14 14:54:00,59.1,51.0,29.99,SW,221,4.0,9.0,74,0.00,,,0.00,weatherlink.com 1.10,2017-12-14 20:54:00,
2017-12-14 15:09:00,59.1,51.0,29.99,SW,230,3.0,5.0,74,0.00,,,0.00,weatherlink.com 1.10,2017-12-14 21:09:00,
2017-12-14 15:24:00,59.2,51.0,30.00,SSW,213,7.0,9.0,74,0.00,,,0.00,weatherlink.com 1.10,2017-12-14 21:24:00,
2017-12-14 15:39:00,58.9,51.0,29.99,SW,223,4.0,6.0,76,0.00,,,0.00,weatherlink.com 1.10,2017-12-14 21:39:00,
2017-12-14 15:54:00,59.0,50.0,29.98,SSW,206,7.0,9.0,73,0.00,,,0.00,weatherlink.com 1.10,2017-12-14 21:54:00,
2017-12-14 16:09:00,59.2,51.0,29.99,SSW,210,7.0,9.0,73,0.00,,,0.00,weatherlink.com 1.10,2017-12-14 22:09:00,
2017-12-14 16:24:00,59.0,51.0,29.99,SSW,204,7.0,8.0,74,0.00,,,0.00,weatherlink.com 1.10,2017-12-14 22:24:00,
2017-12-14 16:39:00,58.9,51.0,29.99,SW,222,4.0,6.0,75,0.00,,,0.00,weatherlink.com 1.10,2017-12-14 22:39:00,
2017-12-14 16:54:00,58.2,51.0,30.00,WSW,250,2.0,3.0,76,0.00,,,0.00,weatherlink.com 1.10,2017-12-14 22:54:00,
2017-12-14 17:09:00,58.1,51.0,29.99,WSW,240,1.0,3.0,76,0.00,,,0.00,weatherlink.com 1.10,2017-12-14 23:09:00,
2017-12-14 17:24:00,57.5,50.0,30.00,WSW,240,2.0,2.0,76,0.00,,,0.00,weatherlink.com 1.10,2017-12-14 23:24:00,
2017-12-14 17:39:00,57.3,51.0,29.99,WSW,240,0.0,2.0,78,0.00,,,0.00,weatherlink.com 1.10,2017-12-14 23:39:00,
2017-12-14 17:54:00,56.5,50.0,30.00,WSW,240,0.0,0.0,78,0.00,,,0.00,weatherlink.com 1.10,2017-12-14 23:54:00,
2017-12-14 18:09:00,55.6,49.0,30.00,WSW,240,0.0,1.0,79,0.00,,,0.00,weatherlink.com 1.10,2017-12-15 00:09:00,
2017-12-14 18:24:00,55.6,49.0,30.00,WSW,240,0.0,0.0,79,0.00,,,0.00,weatherlink.com 1.10,2017-12-15 00:24:00,
2017-12-14 18:39:00,55.3,49.0,30.02,WSW,240,0.0,0.0,80,0.00,,,0.00,weatherlink.com 1.10,2017-12-15 00:39:00,
2017-12-14 18:54:00,54.7,49.0,30.02,WSW,240,1.0,1.0,80,0.00,,,0.00,weatherlink.com 1.10,2017-12-15 00:54:00,
2017-12-14 19:09:00,54.7,49.0,30.02,WSW,240,0.0,0.0,80,0.00,,,0.00,weatherlink.com 1.10,2017-12-15 01:09:00,
2017-12-14 19:24:00,54.5,48.0,30.02,WSW,240,1.0,1.0,78,0.00,,,0.00,weatherlink.com 1.10,2017-12-15 01:24:00,
2017-12-14 19:39:00,54.6,47.0,30.04,West,269,1.0,4.0,75,0.00,,,0.00,weatherlink.com 1.10,2017-12-15 01:39:00,
2017-12-14 19:54:00,55.3,46.0,30.02,NW,309,3.0,4.0,71,0.00,,,0.00,weatherlink.com 1.10,2017-12-15 01:54:00,
2017-12-14 20:09:00,54.7,45.0,30.03,WNW,295,3.0,5.0,69,0.00,,,0.00,weatherlink.com 1.10,2017-12-15 02:09:00,
2017-12-14 20:24:00,54.0,44.0,30.04,WNW,296,1.0,4.0,68,0.00,,,0.00,weatherlink.com 1.10,2017-12-15 02:24:00,
2017-12-14 20:39:00,53.6,43.0,30.04,NW,309,2.0,4.0,68,0.00,,,0.00,weatherlink.com 1.10,2017-12-15 02:39:00,
2017-12-14 20:54:00,53.2,43.0,30.04,WNW,303,2.0,5.0,69,0.00,,,0.00,weatherlink.com 1.10,2017-12-15 02:54:00,
2017-12-14 21:09:00,53.3,44.0,30.03,NW,312,2.0,4.0,70,0.00,,,0.00,weatherlink.com 1.10,2017-12-15 03:09:00,